Regional Weather Roundup
Issued by NWS

Home | Current Version | Previous Version | Graphics & Text | Print | Product List | Glossary On
Versions: 1 2 3 4 5 6 7 8 9 10 11 12 13 14 15 16 17 18 19 20 21 22 23 24 25 26 27 28 29 30 31 32 33 34 35 36 37 38 39 40 41 42 43 44 45 46 47 48 49 50
000
ASUS43 KBIS 270810
RWRND

NORTH DAKOTA REGIONAL WEATHER ROUNDUP
NATIONAL WEATHER SERVICE BISMARCK ND
300 AM CDT SAT AUG 27 2016

NOTE: "FAIR" INDICATES FEW OR NO CLOUDS BELOW 12,000 FEET WITH NO
SIGNIFICANT WEATHER AND/OR OBSTRUCTIONS TO VISIBILITY.


NDZ001>003-009>011-017-270900-
NORTHWEST NORTH DAKOTA

CITY           SKY/WX    TMP DP  RH WIND       PRES   REMARKS
WILLISTON      CLOUDY    49  43  80 CALM      29.93F
MINOT          CLOUDY    60  55  83 S10G20    29.91S
MINOT AFB      CLOUDY    58  53  84 S5        29.90S
$$

NDZ018>021-031>035-040>046-270900-
SOUTHWEST NORTH DAKOTA

CITY           SKY/WX    TMP DP  RH WIND       PRES   REMARKS
BISMARCK       PTCLDY    53  51  93 CALM      29.98F
DICKINSON      CLOUDY    50  44  80 NE7       29.93F
GARRISON         N/A     57  57 100 SW10      29.94F
HETTINGER ARPT CLOUDY    50  48  93 CALM      29.99F FOG
$$

NDZ004>008-012>016-024-026-027-054-270900-
NORTHEAST NORTH DAKOTA

CITY           SKY/WX    TMP DP  RH WIND       PRES   REMARKS
GRAND FORKS    CLOUDY    57  53  86 SE6       29.99F
GRND FRKS AFB  CLOUDY    56  53  88 S6        29.99F
DEVILS LAKE    CLOUDY    58  51  78 S12       29.97F
$$

NDZ022-023-025-028>030-036>039-047>053-270900-
SOUTHEAST NORTH DAKOTA

CITY           SKY/WX    TMP DP  RH WIND       PRES   REMARKS
FARGO          CLOUDY    64  57  78 SE7       30.00F
JAMESTOWN      CLOUDY    58  55  90 S3        29.98F
$$





USA.gov is the U.S. government's official web portal to all federal, state and local government web resources and services.